User: anonymous
Location: South Tamworth Observatory
(43.8246°N, 71.3026°W)
Time: 18:23:57
(UTC-04:00)
Language:

Cosmos 1844 - Orbit

View from above orbital plane
View from above orbital plane
View from above satellite
View from above satellite

Ground track
Ground track

The orbit data is extracted from the following two-line orbital elements,

1 17973U 87041A   14265.06137988  .00000188  00000-0  12384-3 0  8411
2 17973 070.9008 219.1416 0030879 188.9645 242.6410 14.13945713411918
Epoch (UTC): 22 September 2014 01:28:23
Eccentricity: 0.0030879
inclination: 70.9008°
perigee height: 823 km
apogee height: 868 km
right ascension of ascending node: 219.1416°
argument of perigee: 188.9645°
revolutions per day: 14.13945713
mean anomaly at epoch: 242.6410°
orbit number at epoch: 41191

The dashed part of the orbit path shows where the satellite is in the earth's shadow,  

DLR